Hourly Data Report for September 08, 2017

All times are specified in Local Standard Time (LST). Add 1 hour to adjust for Daylight Saving Time where and when it is observed.

NAPPAN AUTO
NOVA SCOTIA

45°45'34.400" N
64°14'29.200" W
19.80 m
8203702
71311
XNP

Download Data

Hourly Data (September 2017)
Hourly Data Report for September 8, 2017
Temp Definition
°C
Dew Point Temp Definition
°C
Rel Hum Definition
%
Wind Dir Definition
10's deg

Wind Spd Definition
km/h
Visibility Definition
km
Stn Press Definition
kPa
Hmdx Definition


Wind Chill Definition


Weather Definition


TIME
00:00 15.8 14.3 91 21 27   100.84     LegendNANA
01:00 15.9 14.4 91 20 20   100.84     LegendNANA
02:00 15.9 14.6 93 21 17   100.88     LegendNANA
03:00 15.5 14.2 92 21 21   100.88     LegendNANA
04:00 15.4 14.2 93 22 17   100.90     LegendNANA
05:00 15.2 13.9 92 21 18   100.90     LegendNANA
06:00 15.0 13.9 93 21 16   100.99     LegendNANA
07:00 15.1 14.0 93 21 16   101.08     LegendNANA
08:00 15.2 13.8 92 23 14   101.22     LegendNANA
09:00 15.9 14.1 89 21 17   101.24     LegendNANA
10:00 16.3 13.9 86 24 17   101.29     LegendNANA
11:00 17.0 14.3 84 27 16   101.33     LegendNANA
12:00 19.8 13.7 68 21 19   101.30     LegendNANA
13:00 20.8 13.2 62 24 20   101.32     LegendNANA
14:00 21.1 12.5 58 23 20   101.34     LegendNANA
15:00 20.6 11.0 54 23 28   101.38     LegendNANA
16:00 20.1 11.2 56 23 27   101.41     LegendNANA
17:00 18.8 11.5 63 23 23   101.45     LegendNANA
18:00 16.9 10.9 68 22 19   101.46     LegendNANA
19:00 14.6 10.3 76 21 11   101.53     LegendNANA
20:00 13.6 10.5 82 17 11   101.61     LegendNANA
21:00 13.0 10.7 86 15 10   101.65     LegendNANA
22:00 12.1 10.6 90 22 3   101.69     LegendNANA
23:00 10.3 9.2 93 19 8   101.70     LegendNANA

Notes on Data Quality.

Legend

  • E = Estimated
  • M = Missing
  • NA = Not Available
  • ‡ = Partner data that is not subject to review by the National Climate Archives
Date modified: